[[{"header":{"parameterUnit":"m.s-1","parameterCategory":1,"la1":30.2991,"la2":30.254,"lo1":-89.0895,"lo2":-89.0444,"dy":0.0017,"dx":0.0017,"nx":28,"ny":28,"refTime":"2024-11-22T09:00:00:Z","depth":0,"parameterNumber":2,"parameterNumberName":"U-component_of_WINDS"},"data":[0,0,0,0,0,0,0,0,0,0,0,0,0,0,0,0,0,0,0,0,0,0,0,0,0,0,0,0,0,0,0,0,0,0,0,0,0,0,0,0,0,0,0,0,0,0,0,0,0,0,0,0,0,0,0,0,0,0,-2.5035,-2.5036,0,-2.5119,-2.512,-2.5121,-2.5016,-2.5012,-2.5009,-2.5005,-2.5093,-2.5099,-2.5105,0,0,0,0,0,0,0,0,0,0,0,0,0,-2.4782,-2.4787,-2.5035,-2.5036,-2.5037,-2.5119,-2.512,-2.5121,-2.5017,-2.5012,-2.5008,-2.5003,-2.5091,-2.5098,-2.5105,0,0,0,0,0,0,0,0,0,0,0,0,0,-2.4882,-2.4789,-2.5034,-2.4994,-2.4992,-2.5119,-2.512,-2.5122,-2.5018,-2.5012,-2.5006,-2.5001,-2.5089,-2.5098,-2.5106,-2.5277,0,0,-2.5134,-2.5138,0,0,0,0,0,0,0,0,-2.4876,-2.4891,-2.4999,-2.4997,-2.4995,-2.5051,-2.5063,-2.5174,-2.5019,-2.5008,-2.5005,-2.4998,-2.5084,-2.5093,-2.5122,-2.5281,-2.5285,-2.5134,-2.514,-2.5144,-2.5146,0,0,0,0,0,0,0,-2.487,-2.4887,-2.5068,-2.5001,-2.4998,-2.4972,-2.498,-2.5084,-2.5078,-2.5009,-2.5001,-2.5013,-2.5082,-2.5113,-2.5123,-2.5286,-2.5134,-2.5142,-2.5148,-2.5151,-2.5588,-2.5594,0,0,0,0,0,0,-2.4867,-2.4882,-2.5065,-2.5071,-2.492,-2.4981,-2.499,-2.5039,-2.5076,-2.5076,-2.5017,-2.5007,-2.5101,-2.5113,-2.5126,-2.5326,-2.5144,-2.5152,-2.5157,-2.5581,-2.5589,-2.5596,0,0,0,0,0,0,-2.4862,-2.4885,-2.5062,-2.4974,-2.4995,-2.4992,-2.5048,-2.5044,-2.5075,-2.5083,-2.5081,-2.5051,-2.5097,-2.5113,-2.524,-2.5328,-2.5156,-2.5164,-2.5574,-2.5584,-2.5592,-2.573,0,0,0,0,0,0,-2.4856,-2.4884,-2.4949,-2.4977,-2.5,-2.5175,-2.5053,-2.5049,-2.5091,-2.5078,-2.5114,-2.5114,-2.5094,-2.5227,-2.5248,-2.5337,-2.5171,-2.5566,-2.5578,-2.5589,-2.5718,-2.5743,-2.5765,0,0,0,0,0,-2.4847,-2.4985,-2.4953,-2.4975,-2.5081,-2.518,-2.5194,-2.5167,-2.5098,-2.5163,-2.5168,-2.5113,-2.5315,-2.5241,-2.5264,-2.5357,-2.556,-2.5575,-2.5589,-2.5707,-2.5738,-2.5764,0,0,0,0,0,0,-2.4969,-2.4988,-2.4952,-2.5104,-2.5141,-2.5163,-2.5244,-2.5201,-2.5259,-2.5245,-2.521,-2.5219,-2.5353,-2.5367,-2.5285,-2.5523,-2.5426,-2.5446,-2.5508,-2.5538,-2.5561,-2.5555,-2.5179,0,0,0,0,0,-2.5013,-2.5092,-2.5104,-2.5237,-2.5257,-2.5248,-2.529,-2.5266,-2.5303,-2.5319,-2.5332,-2.5371,-2.5443,-2.5491,-2.5558,-2.5719,-2.5724,-2.5794,-2.5818,-2.5837,-2.5854,-2.5938,-2.5969,-2.5642,-2.5642,-2.5641,0,0,-2.5106,-2.5126,-2.5179,-2.5262,-2.5288,-2.537,-2.5262,-2.5354,-2.5414,-2.5333,-2.5452,-2.5464,-2.5505,-2.5649,-2.5713,-2.5665,-2.5945,-2.5855,-2.587,-2.5877,-2.5956,-2.5987,-2.6014,-2.5651,-2.565,-2.5648,0,0,-2.5317,-2.5341,-2.5452,-2.548,-2.5521,-2.5513,-2.554,-2.5568,-2.5572,-2.5691,-2.5631,-2.5702,-2.5827,-2.5858,-2.589,-2.611,-2.6061,-2.6132,-2.6255,-2.6338,-2.6364,-2.6386,-2.6463,-2.6491,-2.6149,-2.615,-2.615,0,-2.5428,-2.5548,-2.5516,-2.5611,-2.5649,-2.5578,-2.569,-2.5719,-2.5779,-2.5807,-2.5752,-2.5905,-2.5928,-2.6077,-2.6131,-2.6159,-2.6188,-2.6128,-2.6362,-2.6385,-2.6406,-2.6478,-2.6508,-2.6158,-2.6157,-2.6156,-2.6155,0,-2.5681,-2.5766,-2.5851,-2.591,-2.5957,-2.6061,-2.6043,-2.6095,-2.6066,-2.6064,-2.6185,-2.621,-2.6279,-2.6312,-2.6286,-2.6458,-2.6426,-2.6368,-2.627,-2.6446,-2.6513,-2.6541,-2.617,-2.6167,-2.6165,-2.6162,0,0,-2.5973,-2.601,-2.6042,-2.6067,-2.6105,-2.617,-2.627,-2.6336,-2.6381,-2.6424,-2.6506,-2.6612,-2.6557,-2.6594,-2.657,-2.6642,-2.6812,-2.6574,-2.6574,-2.6617,-2.7001,-2.7044,-2.7078,-2.678,-2.6785,-2.679,-2.6997,0,-2.6183,-2.6355,-2.6327,-2.6493,-2.657,-2.6502,-2.6589,-2.6621,-2.6622,-2.6686,-2.6686,-2.6762,-2.6684,-2.6705,-2.6774,-2.6777,-2.6889,-2.6762,-2.6855,-2.6859,-2.6847,-2.7113,-2.716,-2.7355,-2.7024,-2.7028,-2.7031,0,-2.6452,-2.6503,-2.6677,-2.67,-2.6732,-2.681,-2.6867,-2.6931,-2.6965,-2.696,-2.7,-2.6962,-2.706,-2.6961,-2.7095,-2.7009,-2.7045,-2.7052,-2.7059,-2.7067,-2.6956,-2.7127,-2.7417,-2.7446,-2.7073,-2.707,-2.7067,0,-2.6645,-2.6758,-2.6876,-2.69,-2.6931,-2.6987,-2.7003,-2.7031,-2.7072,-2.7123,-2.7149,-2.7211,-2.7244,-2.7292,-2.7271,-2.7201,-2.7409,-2.7309,-2.7407,-2.7408,-2.7454,-2.7451,-2.7753,-2.7479,-2.7479,-2.7478,-2.7477,0,-2.6882,-2.6991,-2.6963,-2.7036,-2.7155,-2.7121,-2.724,-2.7247,-2.7273,-2.7345,-2.7291,-2.736,-2.7328,-2.7395,-2.7379,-2.7491,-2.7508,-2.7505,-2.75,-2.751,-2.751,-2.7533,-2.7519,-2.7486,-2.7484,-2.7483,-2.7481,0,-2.7119,-2.7105,-2.7229,-2.7247,-2.7254,-2.7341,-2.7356,-2.7424,-2.7419,-2.7511,-2.753,-2.7523,-2.7598,-2.7582,-2.7665,-2.7654,-2.7795,-2.7773,-2.7783,-2.7777,-2.7876,-2.7867,-2.8202,-2.8244,-2.7945,-2.7947,-2.795,0,-2.7271,-2.7353,-2.7379,-2.7423,-2.7442,-2.7514,-2.7555,-2.7525,-2.757,-2.7614,-2.7676,-2.7746,-2.78,-2.7923,-2.7925,-2.7988,-2.7966,-2.8079,-2.7975,-2.7982,-2.7966,-2.7961,-2.7968,-2.81,-2.8103,-2.8106,-2.8108,0,-2.7542,-2.753,-2.7591,-2.7649,-2.7699,-2.7744,-2.7784,-2.7823,-2.7795,-2.7848,-2.7924,-2.7966,-2.8049,-2.8119,-2.8176,-2.8191,-2.8146,-2.8141,-2.8167,-2.8178,-2.818,-2.8178,-2.7838,-2.8134,-2.8131,-2.8129,-2.8128,-2.8127,-2.774,-2.7808,-2.7837,-2.7906,-2.7932,-2.7969,-2.8033,-2.8035,-2.8097,-2.8162,-2.814,-2.8226,-2.8256,-2.8328,-2.8351,-2.8417,-2.8374,-2.8412,-2.8421,-2.8431,-2.8442,-2.817,-2.8427,-2.8426,-2.8426,-2.8425,-2.8425,0,-2.8006,-2.8021,-2.8085,-2.814,-2.8195,-2.8145,-2.8186,-2.8234,-2.831,-2.8342,-2.8396,-2.8482,-2.8548,-2.8555,-2.8617,-2.8669,-2.8649,-2.8686,-2.8682,-2.8686,-2.8478,-2.8448,-2.8701,-2.8701,-2.8701,-2.8701,-2.8701,-2.8701,-2.8151,-2.8264,-2.8255,-2.8379,-2.8393,-2.8476,-2.8503,-2.8537,-2.8562,-2.866,-2.8714,-2.8717,-2.8739,-2.8802,-2.886,-2.886,-2.8885,-2.8931,-2.8923,-2.8728,-2.8701,-2.8674,-2.8647,-2.8937,-2.8937,-2.9125,-2.9126,-2.9128]},{"header":{"parameterUnit":"m.s-1","parameterCategory":1,"la1":30.2991,"la2":30.254,"lo1":-89.0895,"lo2":-89.0444,"dy":0.0017,"dx":0.0017,"nx":28,"ny":28,"refTime":"2024-11-22T09:00:00:Z","depth":0,"parameterNumber":3,"parameterNumberName":"V-component_of_WINDS"},"data":[0,0,0,0,0,0,0,0,0,0,0,0,0,0,0,0,0,0,0,0,0,0,0,0,0,0,0,0,0,0,0,0,0,0,0,0,0,0,0,0,0,0,0,0,0,0,0,0,0,0,0,0,0,0,0,0,0,0,-3.147,-3.1471,0,-3.152,-3.152,-3.1521,-3.1489,-3.1487,-3.1486,-3.1484,-3.1533,-3.1535,-3.1538,0,0,0,0,0,0,0,0,0,0,0,0,0,-3.1344,-3.1347,-3.147,-3.1471,-3.1471,-3.152,-3.152,-3.1521,-3.1489,-3.1487,-3.1485,-3.1484,-3.1532,-3.1535,-3.1538,0,0,0,0,0,0,0,0,0,0,0,0,0,-3.1397,-3.1348,-3.147,-3.1461,-3.1461,-3.1519,-3.152,-3.1521,-3.1489,-3.1487,-3.1485,-3.1483,-3.1531,-3.1535,-3.1539,-3.1608,0,0,-3.1551,-3.1553,0,0,0,0,0,0,0,0,-3.1394,-3.1402,-3.1462,-3.1462,-3.1462,-3.1496,-3.1494,-3.155,-3.149,-3.1479,-3.1484,-3.1482,-3.1522,-3.1527,-3.1541,-3.161,-3.1612,-3.1551,-3.1554,-3.1555,-3.1556,0,0,0,0,0,0,0,-3.139,-3.1399,-3.149,-3.1463,-3.1463,-3.1454,-3.1459,-3.1504,-3.1512,-3.1479,-3.1477,-3.1484,-3.1522,-3.1537,-3.1542,-3.1613,-3.1551,-3.1555,-3.1557,-3.1559,-3.1738,-3.174,0,0,0,0,0,0,-3.1388,-3.1396,-3.1488,-3.1491,-3.1422,-3.1458,-3.1463,-3.1487,-3.1511,-3.1513,-3.1485,-3.1482,-3.1531,-3.1537,-3.1543,-3.1623,-3.1555,-3.1559,-3.1561,-3.1736,-3.1739,-3.1741,0,0,0,0,0,0,-3.1385,-3.1396,-3.1486,-3.1443,-3.1454,-3.1462,-3.1489,-3.1489,-3.1504,-3.1516,-3.1517,-3.15,-3.153,-3.1538,-3.1591,-3.1625,-3.1561,-3.1565,-3.1733,-3.1737,-3.174,-3.1786,0,0,0,0,0,0,-3.1382,-3.1396,-3.1423,-3.1444,-3.1456,-3.1535,-3.1491,-3.1492,-3.1512,-3.1508,-3.153,-3.1531,-3.1529,-3.1586,-3.1595,-3.1629,-3.1568,-3.173,-3.1735,-3.1739,-3.1782,-3.1791,-3.1799,0,0,0,0,0,-3.1377,-3.1434,-3.1425,-3.1436,-3.1491,-3.1537,-3.1544,-3.154,-3.1515,-3.1541,-3.1548,-3.1531,-3.162,-3.1591,-3.1602,-3.1638,-3.1728,-3.1733,-3.1738,-3.1778,-3.1789,-3.1798,0,0,0,0,0,0,-3.1416,-3.1437,-3.1426,-3.1492,-3.1513,-3.1531,-3.1565,-3.1552,-3.158,-3.1575,-3.1568,-3.1574,-3.1629,-3.1639,-3.1607,-3.1704,-3.167,-3.1677,-3.1696,-3.1707,-3.1715,-3.1711,-3.1571,0,0,0,0,0,-3.1433,-3.1469,-3.1485,-3.1541,-3.1552,-3.1557,-3.1577,-3.1572,-3.1593,-3.1601,-3.1612,-3.1633,-3.1665,-3.1687,-3.1717,-3.1783,-3.1786,-3.1813,-3.1821,-3.1828,-3.1834,-3.1867,-3.1879,-3.1759,-3.1759,-3.1759,0,0,-3.1466,-3.1482,-3.1506,-3.1549,-3.1565,-3.1601,-3.1564,-3.1605,-3.1631,-3.1607,-3.1658,-3.1667,-3.1689,-3.1749,-3.1776,-3.1759,-3.1868,-3.1835,-3.184,-3.1843,-3.1874,-3.1885,-3.1895,-3.1762,-3.1762,-3.1761,0,0,-3.1546,-3.1563,-3.161,-3.1626,-3.1651,-3.1653,-3.1665,-3.1685,-3.169,-3.1741,-3.1723,-3.1754,-3.1811,-3.1826,-3.1842,-3.1926,-3.191,-3.1936,-3.198,-3.2012,-3.2022,-3.203,-3.2058,-3.2068,-3.1942,-3.1943,-3.1943,0,-3.1585,-3.164,-3.1636,-3.1678,-3.1696,-3.1676,-3.1723,-3.1739,-3.1772,-3.1784,-3.1765,-3.1834,-3.1848,-3.1909,-3.193,-3.1944,-3.1955,-3.1933,-3.2021,-3.2029,-3.2037,-3.2063,-3.2074,-3.1945,-3.1945,-3.1945,-3.1945,0,-3.1685,-3.1724,-3.1759,-3.1791,-3.1813,-3.1858,-3.1858,-3.1882,-3.1875,-3.1879,-3.193,-3.1946,-3.1978,-3.1993,-3.1986,-3.2053,-3.2041,-3.2022,-3.1986,-3.2051,-3.2075,-3.2086,-3.195,-3.1949,-3.1948,-3.1947,0,0,-3.1791,-3.1819,-3.1832,-3.1845,-3.187,-3.1899,-3.1941,-3.1973,-3.1992,-3.2015,-3.2049,-3.2096,-3.2078,-3.2095,-3.209,-3.2119,-3.2182,-3.2096,-3.2096,-3.2109,-3.2253,-3.2266,-3.2278,-3.2172,-3.2174,-3.2175,-3.225,0,-3.187,-3.1945,-3.1941,-3.201,-3.2044,-3.2025,-3.2061,-3.2079,-3.2084,-3.2113,-3.2118,-3.2151,-3.2125,-3.2135,-3.2163,-3.2168,-3.221,-3.2163,-3.2201,-3.2203,-3.2194,-3.2291,-3.2306,-3.2376,-3.226,-3.2262,-3.2263,0,-3.1973,-3.1999,-3.2071,-3.2089,-3.2103,-3.2136,-3.2164,-3.2192,-3.2211,-3.2212,-3.2232,-3.2222,-3.2262,-3.2227,-3.2282,-3.225,-3.2266,-3.2271,-3.2273,-3.2275,-3.2236,-3.2294,-3.2399,-3.2409,-3.2279,-3.2277,-3.2276,0,-3.204,-3.2093,-3.2143,-3.2155,-3.2177,-3.22,-3.2211,-3.2228,-3.2247,-3.2271,-3.2282,-3.2311,-3.2326,-3.2348,-3.2345,-3.232,-3.24,-3.2366,-3.2401,-3.2401,-3.2417,-3.2416,-3.2524,-3.2431,-3.2431,-3.243,-3.243,0,-3.2128,-3.2172,-3.2173,-3.2203,-3.2251,-3.2247,-3.2294,-3.2302,-3.2317,-3.2347,-3.2333,-3.2361,-3.2357,-3.2385,-3.2383,-3.2428,-3.2435,-3.2436,-3.2434,-3.2436,-3.2436,-3.2445,-3.2439,-3.2433,-3.2433,-3.2432,-3.2432,0,-3.221,-3.2213,-3.2265,-3.2282,-3.2287,-3.2321,-3.2335,-3.2362,-3.2366,-3.2404,-3.2413,-3.2417,-3.2449,-3.2449,-3.2486,-3.2485,-3.2538,-3.2532,-3.2532,-3.253,-3.2564,-3.256,-3.268,-3.2695,-3.2594,-3.2595,-3.2596,0,-3.2265,-3.2299,-3.2319,-3.2338,-3.235,-3.2381,-3.24,-3.2396,-3.2416,-3.244,-3.2464,-3.2495,-3.2519,-3.2571,-3.2577,-3.2604,-3.2598,-3.2638,-3.2602,-3.2601,-3.2596,-3.2593,-3.2595,-3.2644,-3.2646,-3.2646,-3.2647,0,-3.2362,-3.2361,-3.2389,-3.2417,-3.244,-3.2462,-3.2482,-3.2498,-3.2496,-3.2519,-3.2552,-3.2571,-3.2608,-3.2638,-3.2664,-3.2673,-3.2659,-3.2659,-3.2668,-3.2669,-3.2666,-3.2666,-3.2549,-3.2656,-3.2655,-3.2654,-3.2654,-3.2653,-3.2431,-3.2459,-3.2477,-3.2508,-3.2522,-3.2541,-3.2567,-3.2573,-3.2601,-3.2631,-3.2627,-3.2662,-3.2679,-3.2713,-3.2724,-3.2751,-3.2737,-3.2751,-3.2754,-3.2757,-3.276,-3.2664,-3.2756,-3.2756,-3.2756,-3.2756,-3.2755,0,-3.2525,-3.2535,-3.2564,-3.2592,-3.2616,-3.2602,-3.2623,-3.2643,-3.2675,-3.2692,-3.2716,-3.2752,-3.2781,-3.2789,-3.2816,-3.2836,-3.283,-3.2843,-3.2841,-3.2842,-3.2772,-3.276,-3.2847,-3.2847,-3.2847,-3.2847,-3.2847,-3.2847,-3.2576,-3.2622,-3.2623,-3.2675,-3.2685,-3.272,-3.2733,-3.2749,-3.2763,-3.2804,-3.2828,-3.2833,-3.2846,-3.2874,-3.2898,-3.29,-3.291,-3.2925,-3.2923,-3.2857,-3.2848,-3.2839,-3.2828,-3.2927,-3.2927,-3.2991,-3.2992,-3.2992]}]]